AA96V LEBL-LEMD

Flight info

Callsign AA96V
Flight time 0h 59m
Altitude 20000
Route LEBLSENIA Z596 NEXAS N975 ADUXO LEMD
Aircraft A320/M-V/N

Departure

Time 2026-05-05 22:57
Airport Josep Tarradellas Barcelona-El Prat Airport (LEBL)

Arrival

Time 2026-05-05 23:56
Airport Adolfo Suárez Madrid–Barajas Airport (LEMD)
Time Latitude Longitude Altitude Speed Heading
2026-05-05 22:20 41.29635 2.05938 18 ft 0 kts 246°
2026-05-05 22:40 41.29639 2.05947 18 ft 2 kts 237°
2026-05-05 22:40 41.29643 2.05956 18 ft 0 kts 225°
2026-05-05 22:40 41.29648 2.05963 19 ft 3 kts 214°
2026-05-05 22:41 41.29664 2.05973 20 ft 0 kts 194°
2026-05-05 22:41 41.29655 2.05973 19 ft 2 kts 178°
2026-05-05 22:41 41.29648 2.05974 17 ft 4 kts 170°
2026-05-05 22:41 41.29661 2.05971 22 ft 0 kts 163°
2026-05-05 22:45 41.29661 2.05972 22 ft 1 kts 163°
2026-05-05 22:45 41.29646 2.05986 17 ft 5 kts 139°
2026-05-05 22:45 41.29604 2.06019 19 ft 9 kts 151°
2026-05-05 22:45 41.29532 2.06064 18 ft 14 kts 155°
2026-05-05 22:46 41.29430 2.06119 20 ft 18 kts 161°
2026-05-05 22:46 41.29303 2.06147 18 ft 19 kts 158°
2026-05-05 22:46 41.29170 2.06226 18 ft 23 kts 153°
2026-05-05 22:46 41.29045 2.06357 20 ft 24 kts 114°
2026-05-05 22:47 41.29015 2.06576 18 ft 25 kts 69°
2026-05-05 22:47 41.29088 2.06794 18 ft 27 kts 65°
2026-05-05 22:47 41.29097 2.06872 18 ft 3 kts 117°
2026-05-05 22:47 41.29081 2.06947 18 ft 13 kts 81°
2026-05-05 22:48 41.29123 2.07080 19 ft 18 kts 65°
2026-05-05 22:48 41.29180 2.07243 20 ft 21 kts 65°
2026-05-05 22:48 41.29245 2.07429 18 ft 24 kts 64°
2026-05-05 22:48 41.29271 2.07602 19 ft 10 kts 135°
2026-05-05 22:49 41.29203 2.07642 20 ft 13 kts 154°
2026-05-05 22:49 41.29178 2.07759 20 ft 17 kts 67°
2026-05-05 22:49 41.29241 2.07946 18 ft 27 kts 65°
2026-05-05 22:49 41.29331 2.08208 18 ft 34 kts 65°
2026-05-05 22:50 41.29348 2.08377 17 ft 7 kts 141°
2026-05-05 22:50 41.29289 2.08425 17 ft 12 kts 152°
2026-05-05 22:50 41.29198 2.08446 17 ft 15 kts 194°
2026-05-05 22:50 41.29101 2.08404 17 ft 14 kts 200°
2026-05-05 22:51 41.29036 2.08321 18 ft 14 kts 253°
2026-05-05 22:51 41.28996 2.08187 19 ft 17 kts 245°
2026-05-05 22:51 41.28902 2.08148 20 ft 17 kts 150°
2026-05-05 22:51 41.28784 2.08219 18 ft 20 kts 159°
2026-05-05 22:52 41.28710 2.08259 18 ft 3 kts 116°
2026-05-05 22:52 41.28714 2.08300 18 ft 6 kts 70°
2026-05-05 22:52 41.28737 2.08371 19 ft 10 kts 64°
2026-05-05 22:52 41.28774 2.08473 20 ft 14 kts 64°
2026-05-05 22:53 41.28824 2.08612 19 ft 19 kts 65°
2026-05-05 22:53 41.28890 2.08802 20 ft 27 kts 66°
2026-05-05 22:53 41.28978 2.09066 18 ft 35 kts 66°
2026-05-05 22:53 41.29086 2.09388 18 ft 41 kts 65°
2026-05-05 22:54 41.29214 2.09756 19 ft 46 kts 65°
2026-05-05 22:54 41.29354 2.10139 17 ft 45 kts 75°
2026-05-05 22:54 41.29253 2.10312 13 ft 23 kts 171°
2026-05-05 22:54 41.29166 2.10167 13 ft 22 kts 249°
2026-05-05 22:55 41.29140 2.10086 15 ft 0 kts 246°
2026-05-05 22:56 41.29127 2.10046 14 ft 28 kts 245°
2026-05-05 22:56 41.28898 2.09390 14 ft 124 kts 245°
2026-05-05 22:56 41.28441 2.08107 283 ft 174 kts 244°
2026-05-05 22:57 41.27746 2.06723 1180 ft 186 kts 225°
2026-05-05 22:57 41.26534 2.05936 2226 ft 210 kts 194°
2026-05-05 22:57 41.25038 2.05745 3359 ft 217 kts 187°
2026-05-05 22:57 41.23519 2.05558 4446 ft 221 kts 192°
2026-05-05 22:58 41.22025 2.05185 5543 ft 221 kts 197°
2026-05-05 22:58 41.20529 2.04644 6621 ft 224 kts 201°
2026-05-05 22:58 41.19047 2.04005 7675 ft 225 kts 203°
2026-05-05 22:58 41.17626 2.03169 8732 ft 224 kts 220°
2026-05-05 22:59 41.16581 2.01580 9439 ft 239 kts 240°
2026-05-05 22:59 41.15752 1.99614 10337 ft 242 kts 243°
2026-05-05 22:59 41.14946 1.97745 11750 ft 226 kts 240°
2026-05-05 22:59 41.14100 1.95985 12824 ft 228 kts 239°
2026-05-05 23:00 41.12816 1.92095 14603 ft 232 kts 254°
2026-05-05 23:00 41.12366 1.90042 15500 ft 234 kts 253°
2026-05-05 23:00 41.11879 1.87918 16057 ft 249 kts 253°
2026-05-05 23:01 41.11541 1.85632 16772 ft 255 kts 267°
2026-05-05 23:01 41.11761 1.83250 17464 ft 270 kts 284°
2026-05-05 23:01 41.12462 1.80890 18127 ft 283 kts 288°
2026-05-05 23:01 41.13237 1.78372 18335 ft 308 kts 291°
2026-05-05 23:02 41.14496 1.75910 18519 ft 339 kts 308°
2026-05-05 23:02 41.16455 1.73943 18741 ft 369 kts 324°
2026-05-05 23:02 41.18678 1.72196 19304 ft 371 kts 318°
2026-05-05 23:02 41.20505 1.69868 19454 ft 358 kts 301°
2026-05-05 23:03 41.21636 1.67024 19563 ft 348 kts 283°
2026-05-05 23:03 41.22146 1.63914 19679 ft 344 kts 277°
2026-05-05 23:03 41.22573 1.60824 19782 ft 344 kts 277°
2026-05-05 23:03 41.23018 1.57694 19887 ft 345 kts 277°
2026-05-05 23:04 41.23392 1.54557 19938 ft 343 kts 271°
2026-05-05 23:04 41.23406 1.51598 19948 ft 340 kts 264°
2026-05-05 23:04 41.23041 1.48495 19941 ft 340 kts 256°
2026-05-05 23:04 41.22361 1.45488 19942 ft 340 kts 252°
2026-05-05 23:05 41.21658 1.42497 19941 ft 340 kts 252°
2026-05-05 23:05 41.20960 1.39497 19940 ft 340 kts 253°
2026-05-05 23:05 41.20266 1.36499 19942 ft 340 kts 253°
2026-05-05 23:05 41.19572 1.33498 19938 ft 340 kts 253°
2026-05-05 23:06 41.18875 1.30498 19938 ft 340 kts 253°
2026-05-05 23:06 41.18178 1.27503 19941 ft 340 kts 252°
2026-05-05 23:06 41.17477 1.24508 19938 ft 340 kts 252°
2026-05-05 23:06 41.16776 1.21509 19938 ft 340 kts 252°
2026-05-05 23:07 41.16076 1.18519 19940 ft 340 kts 252°
2026-05-05 23:07 41.15380 1.15552 19938 ft 340 kts 252°
2026-05-05 23:07 41.14675 1.12558 19942 ft 341 kts 253°
2026-05-05 23:07 41.13967 1.09552 19939 ft 341 kts 253°
2026-05-05 23:08 41.13259 1.06551 19939 ft 341 kts 253°
2026-05-05 23:08 41.12551 1.03549 19919 ft 341 kts 253°
2026-05-05 23:08 41.11844 1.00554 19941 ft 339 kts 253°
2026-05-05 23:08 41.11137 0.97563 19943 ft 340 kts 253°
2026-05-05 23:09 41.10429 0.94573 19943 ft 340 kts 253°
2026-05-05 23:09 41.09721 0.91586 19961 ft 340 kts 253°
2026-05-05 23:09 41.09012 0.88595 19964 ft 340 kts 253°
2026-05-05 23:09 41.08221 0.85647 19963 ft 341 kts 245°
2026-05-05 23:10 41.06920 0.83022 19965 ft 344 kts 231°
2026-05-05 23:10 41.05095 0.80938 19960 ft 351 kts 217°
2026-05-05 23:10 41.02849 0.79578 19966 ft 361 kts 202°
2026-05-05 23:10 41.00419 0.78707 19964 ft 362 kts 201°
2026-05-05 23:11 40.98011 0.77856 19956 ft 362 kts 201°
2026-05-05 23:11 40.95577 0.76992 19958 ft 362 kts 201°
2026-05-05 23:11 40.93198 0.76140 19972 ft 362 kts 202°
2026-05-05 23:11 40.90920 0.74809 19954 ft 355 kts 217°
2026-05-05 23:12 40.89069 0.72748 19957 ft 345 kts 232°
2026-05-05 23:12 40.87754 0.70140 19964 ft 340 kts 246°
2026-05-05 23:12 40.87041 0.67176 19964 ft 340 kts 260°
2026-05-05 23:12 40.86930 0.64044 19962 ft 341 kts 269°
2026-05-05 23:13 40.86964 0.60913 19966 ft 341 kts 269°
2026-05-05 23:13 40.86993 0.57784 19963 ft 340 kts 269°
2026-05-05 23:13 40.87017 0.54652 19970 ft 341 kts 269°
2026-05-05 23:13 40.87038 0.51526 19965 ft 340 kts 269°
2026-05-05 23:14 40.87057 0.48397 19971 ft 340 kts 269°
2026-05-05 23:14 40.87074 0.45266 19978 ft 341 kts 269°
2026-05-05 23:14 40.87091 0.42139 19970 ft 340 kts 269°
2026-05-05 23:14 40.87107 0.39014 19982 ft 341 kts 269°
2026-05-05 23:15 40.87122 0.35880 19977 ft 342 kts 269°
2026-05-05 23:15 40.87136 0.32761 19971 ft 344 kts 269°
2026-05-05 23:15 40.87150 0.29563 19984 ft 343 kts 269°
2026-05-05 23:15 40.87165 0.26457 19984 ft 343 kts 269°
2026-05-05 23:16 40.87179 0.23301 19987 ft 344 kts 269°
2026-05-05 23:16 40.87190 0.20144 19989 ft 343 kts 269°
2026-05-05 23:16 40.87200 0.16985 19986 ft 343 kts 269°
2026-05-05 23:16 40.87209 0.13834 20000 ft 343 kts 269°
2026-05-05 23:17 40.87217 0.10683 19996 ft 343 kts 269°
2026-05-05 23:17 40.87225 0.07525 19998 ft 344 kts 269°
2026-05-05 23:17 40.87232 0.04369 19997 ft 343 kts 269°
2026-05-05 23:17 40.87237 0.01225 19994 ft 343 kts 269°
2026-05-05 23:18 40.87242 -0.01930 20006 ft 344 kts 269°
2026-05-05 23:18 40.87246 -0.05067 20005 ft 345 kts 269°
2026-05-05 23:18 40.87250 -0.08236 20000 ft 345 kts 269°
2026-05-05 23:18 40.87253 -0.11408 20004 ft 345 kts 269°
2026-05-05 23:19 40.87255 -0.14575 20001 ft 344 kts 269°
2026-05-05 23:19 40.87256 -0.17743 20000 ft 345 kts 269°
2026-05-05 23:19 40.87257 -0.20908 20003 ft 344 kts 269°
2026-05-05 23:19 40.87256 -0.24070 20002 ft 344 kts 269°
2026-05-05 23:20 40.87254 -0.27238 20000 ft 344 kts 269°
2026-05-05 23:20 40.87252 -0.30402 19999 ft 344 kts 269°
2026-05-05 23:20 40.87248 -0.33567 20009 ft 344 kts 269°
2026-05-05 23:20 40.87244 -0.36728 20007 ft 345 kts 269°
2026-05-05 23:21 40.87239 -0.39900 20004 ft 344 kts 269°
2026-05-05 23:21 40.87233 -0.43063 20006 ft 344 kts 269°
2026-05-05 23:21 40.87226 -0.46183 20010 ft 344 kts 269°
2026-05-05 23:21 40.87219 -0.49344 20016 ft 344 kts 269°
2026-05-05 23:22 40.87210 -0.52512 20012 ft 345 kts 269°
2026-05-05 23:22 40.87200 -0.55672 20014 ft 344 kts 269°
2026-05-05 23:22 40.87190 -0.58838 20009 ft 344 kts 269°
2026-05-05 23:22 40.87179 -0.62001 20011 ft 344 kts 269°
2026-05-05 23:23 40.87167 -0.65159 20019 ft 344 kts 269°
2026-05-05 23:23 40.87154 -0.68317 20018 ft 344 kts 269°
2026-05-05 23:23 40.87140 -0.71488 20008 ft 345 kts 269°
2026-05-05 23:23 40.87125 -0.74653 20022 ft 345 kts 268°
2026-05-05 23:24 40.86967 -0.77813 20023 ft 345 kts 263°
2026-05-05 23:24 40.86525 -0.80941 20020 ft 346 kts 257°
2026-05-05 23:24 40.85812 -0.83979 20019 ft 346 kts 251°
2026-05-05 23:24 40.84973 -0.86960 20019 ft 347 kts 251°
2026-05-05 23:25 40.84144 -0.89952 20024 ft 346 kts 251°
2026-05-05 23:25 40.83320 -0.92940 20032 ft 346 kts 251°
2026-05-05 23:25 40.82505 -0.95893 20033 ft 347 kts 251°
2026-05-05 23:25 40.81679 -0.98879 20033 ft 346 kts 251°
2026-05-05 23:26 40.80850 -1.01872 20028 ft 347 kts 251°
2026-05-05 23:26 40.80020 -1.04862 20022 ft 347 kts 251°
2026-05-05 23:26 40.79172 -1.07918 20034 ft 366 kts 251°
2026-05-05 23:26 40.78270 -1.11165 20035 ft 388 kts 251°
2026-05-05 23:27 40.77318 -1.14588 20030 ft 406 kts 251°
2026-05-05 23:27 40.76332 -1.18113 20029 ft 411 kts 251°
2026-05-05 23:27 40.75341 -1.21653 20028 ft 411 kts 251°
2026-05-05 23:27 40.74350 -1.25186 20033 ft 411 kts 251°
2026-05-05 23:28 40.73359 -1.28720 20034 ft 411 kts 251°
2026-05-05 23:28 40.72366 -1.32253 20031 ft 411 kts 251°
2026-05-05 23:28 40.71374 -1.35783 20032 ft 411 kts 251°
2026-05-05 23:28 40.70380 -1.39315 20037 ft 411 kts 251°
2026-05-05 23:29 40.69384 -1.42849 20039 ft 411 kts 251°
2026-05-05 23:29 40.68387 -1.46381 20036 ft 411 kts 251°
2026-05-05 23:29 40.67390 -1.49910 20037 ft 411 kts 251°
2026-05-05 23:29 40.66405 -1.53391 20031 ft 412 kts 251°
2026-05-05 23:30 40.65404 -1.56923 20031 ft 408 kts 251°
2026-05-05 23:30 40.64438 -1.60318 20037 ft 384 kts 251°
2026-05-05 23:30 40.63529 -1.63505 20035 ft 360 kts 251°
2026-05-05 23:30 40.62675 -1.66503 20040 ft 339 kts 251°
2026-05-05 23:31 40.61873 -1.69317 20033 ft 319 kts 251°
2026-05-05 23:31 40.61115 -1.71977 20027 ft 301 kts 251°
2026-05-05 23:31 40.60401 -1.74478 20026 ft 284 kts 252°
2026-05-05 23:31 40.59727 -1.76840 20035 ft 268 kts 252°
2026-05-05 23:32 40.59089 -1.79072 20032 ft 254 kts 252°
2026-05-05 23:32 40.58463 -1.81265 20030 ft 260 kts 252°
2026-05-05 23:32 40.57828 -1.83499 20029 ft 259 kts 252°
2026-05-05 23:32 40.57194 -1.85715 20029 ft 259 kts 252°
2026-05-05 23:33 40.56559 -1.87931 20030 ft 259 kts 252°
2026-05-05 23:33 40.55923 -1.90146 20029 ft 259 kts 252°
2026-05-05 23:33 40.55286 -1.92361 20029 ft 260 kts 252°
2026-05-05 23:33 40.54650 -1.94568 20031 ft 261 kts 252°
2026-05-05 23:34 40.54008 -1.96801 20033 ft 261 kts 252°
2026-05-05 23:34 40.53366 -1.99031 20026 ft 261 kts 252°
2026-05-05 23:34 40.52723 -2.01260 20021 ft 260 kts 252°
2026-05-05 23:34 40.52083 -2.03477 19906 ft 259 kts 252°
2026-05-05 23:35 40.51437 -2.05689 19563 ft 260 kts 250°
2026-05-05 23:35 40.50606 -2.07814 19124 ft 264 kts 242°
2026-05-05 23:35 40.49629 -2.09870 18720 ft 265 kts 242°
2026-05-05 23:35 40.48663 -2.11930 18313 ft 265 kts 242°
2026-05-05 23:36 40.47697 -2.14000 17879 ft 265 kts 242°
2026-05-05 23:36 40.46737 -2.16057 17478 ft 264 kts 242°
2026-05-05 23:36 40.45781 -2.18104 17081 ft 262 kts 242°
2026-05-05 23:36 40.44839 -2.20119 16723 ft 259 kts 242°
2026-05-05 23:37 40.43897 -2.22132 16355 ft 258 kts 242°
2026-05-05 23:37 40.42954 -2.24146 15952 ft 258 kts 241°
2026-05-05 23:37 40.42015 -2.26151 15558 ft 258 kts 241°
2026-05-05 23:37 40.41077 -2.28153 15241 ft 254 kts 241°
2026-05-05 23:38 40.40150 -2.30125 15143 ft 257 kts 242°
2026-05-05 23:38 40.39211 -2.32128 15053 ft 257 kts 241°
2026-05-05 23:38 40.38276 -2.34117 14815 ft 255 kts 241°
2026-05-05 23:38 40.37344 -2.36099 14451 ft 256 kts 241°
2026-05-05 23:39 40.36421 -2.38063 14077 ft 256 kts 241°
2026-05-05 23:39 40.35485 -2.40051 13683 ft 256 kts 241°
2026-05-05 23:39 40.34551 -2.42033 13317 ft 254 kts 241°
2026-05-05 23:39 40.33623 -2.44000 12946 ft 253 kts 240°
2026-05-05 23:40 40.32700 -2.45956 12578 ft 251 kts 240°
2026-05-05 23:40 40.31783 -2.47898 12186 ft 250 kts 240°
2026-05-05 23:40 40.30889 -2.49791 11826 ft 248 kts 240°
2026-05-05 23:40 40.29982 -2.51710 11464 ft 247 kts 240°
2026-05-05 23:41 40.29078 -2.53620 11171 ft 244 kts 240°
2026-05-05 23:41 40.28189 -2.55498 11082 ft 247 kts 240°
2026-05-05 23:41 40.27294 -2.57391 11008 ft 246 kts 240°
2026-05-05 23:41 40.26455 -2.59330 10999 ft 243 kts 249°
2026-05-05 23:42 40.26041 -2.61447 10820 ft 241 kts 265°
2026-05-05 23:42 40.26025 -2.63635 10506 ft 241 kts 271°
2026-05-05 23:42 40.26036 -2.65824 10170 ft 240 kts 270°
2026-05-05 23:42 40.26038 -2.68005 9822 ft 240 kts 270°
2026-05-05 23:43 40.26034 -2.70172 9570 ft 233 kts 270°
2026-05-05 23:43 40.26027 -2.72248 9474 ft 222 kts 270°
2026-05-05 23:43 40.26020 -2.74236 9275 ft 216 kts 270°
2026-05-05 23:43 40.26015 -2.75537 9064 ft 216 kts 270°
2026-05-05 23:44 40.26007 -2.77500 8745 ft 216 kts 270°
2026-05-05 23:44 40.25999 -2.79468 8438 ft 215 kts 270°
2026-05-05 23:44 40.25991 -2.81420 8169 ft 213 kts 270°
2026-05-05 23:44 40.25983 -2.83371 8078 ft 217 kts 270°
2026-05-05 23:45 40.25974 -2.85335 7996 ft 214 kts 270°
2026-05-05 23:45 40.25966 -2.87296 7993 ft 215 kts 270°
2026-05-05 23:45 40.25956 -2.89256 7993 ft 216 kts 270°
2026-05-05 23:45 40.25947 -2.91218 7993 ft 216 kts 270°
2026-05-05 23:46 40.25937 -2.93178 7993 ft 215 kts 270°
2026-05-05 23:46 40.25927 -2.95140 7993 ft 215 kts 270°
2026-05-05 23:46 40.25917 -2.97099 7994 ft 215 kts 270°
2026-05-05 23:46 40.25906 -2.99057 7993 ft 215 kts 270°
2026-05-05 23:47 40.25895 -3.00993 7993 ft 215 kts 270°
2026-05-05 23:47 40.25884 -3.02952 7994 ft 216 kts 270°
2026-05-05 23:47 40.25873 -3.04943 7993 ft 215 kts 270°
2026-05-05 23:47 40.25860 -3.06874 7993 ft 215 kts 270°
2026-05-05 23:48 40.25848 -3.08830 7997 ft 215 kts 270°
2026-05-05 23:48 40.25835 -3.10787 7995 ft 215 kts 270°
2026-05-05 23:48 40.25823 -3.12713 7993 ft 215 kts 270°
2026-05-05 23:48 40.25937 -3.14658 7995 ft 214 kts 280°
2026-05-05 23:49 40.26204 -3.16574 7943 ft 213 kts 280°
2026-05-05 23:49 40.26463 -3.18483 7701 ft 213 kts 280°
2026-05-05 23:49 40.26718 -3.20396 7397 ft 214 kts 280°
2026-05-05 23:49 40.26971 -3.22313 7125 ft 213 kts 280°
2026-05-05 23:50 40.27222 -3.24226 6853 ft 213 kts 280°
2026-05-05 23:50 40.27473 -3.26135 6586 ft 212 kts 280°
2026-05-05 23:50 40.27724 -3.28041 6314 ft 212 kts 280°
2026-05-05 23:50 40.27971 -3.29920 6031 ft 212 kts 280°
2026-05-05 23:51 40.28250 -3.31819 5723 ft 212 kts 287°
2026-05-05 23:51 40.28911 -3.33534 5438 ft 212 kts 308°
2026-05-05 23:51 40.29874 -3.34998 5154 ft 212 kts 311°
2026-05-05 23:51 40.30831 -3.36446 5037 ft 211 kts 312°
2026-05-05 23:52 40.31886 -3.37815 4945 ft 213 kts 319°
2026-05-05 23:52 40.33018 -3.39052 4855 ft 212 kts 322°
2026-05-05 23:52 40.34185 -3.40235 4761 ft 211 kts 322°
2026-05-05 23:52 40.35347 -3.41416 4664 ft 211 kts 322°
2026-05-05 23:53 40.36497 -3.42582 4547 ft 212 kts 322°
2026-05-05 23:53 40.37661 -3.43762 4303 ft 211 kts 323°
2026-05-05 23:53 40.38819 -3.44938 4021 ft 211 kts 322°
2026-05-05 23:53 40.39973 -3.46110 3754 ft 207 kts 322°
2026-05-05 23:54 40.41092 -3.47246 3483 ft 201 kts 322°
2026-05-05 23:54 40.42209 -3.48380 3218 ft 204 kts 322°
2026-05-05 23:54 40.43334 -3.49524 2915 ft 208 kts 323°
2026-05-05 23:54 40.44475 -3.50684 2640 ft 206 kts 323°
2026-05-05 23:55 40.45595 -3.51821 2360 ft 198 kts 322°
2026-05-05 23:55 40.46708 -3.52955 2106 ft 206 kts 322°
2026-05-05 23:55 40.47800 -3.54066 1947 ft 176 kts 322°
2026-05-05 23:55 40.48543 -3.54818 1964 ft 104 kts 322°
2026-05-05 23:56 40.48988 -3.55272 1976 ft 60 kts 322°
2026-05-05 23:56 40.49186 -3.55535 1981 ft 23 kts 299°
2026-05-05 23:56 40.49237 -3.55673 1984 ft 18 kts 292°
2026-05-05 23:56 40.49291 -3.55834 1986 ft 20 kts 300°
2026-05-05 23:57 40.49390 -3.55968 1986 ft 22 kts 322°
2026-05-05 23:57 40.49521 -3.56104 1978 ft 27 kts 321°
2026-05-05 23:57 40.49557 -3.56356 1961 ft 32 kts 270°
2026-05-05 23:57 40.49603 -3.56549 1953 ft 17 kts 349°
2026-05-05 23:58 40.49684 -3.56588 1949 ft 0 kts 303°
2026-05-05 23:58 40.49683 -3.56590 1949 ft 1 kts 287°
2026-05-05 23:58 40.49686 -3.56627 1948 ft 7 kts 273°
2026-05-05 23:58 40.49687 -3.56644 1948 ft 0 kts 271°